owner,sensor,date,latitude,longitude,vertical_datum,sea_water_temperature,qcFlag 
NERRS,ioos:station:NOAA.NERRS:apaebwq:1,2015-11-01T00:45:00Z,29.7858,-84.8752,0.0,25.2,2 
NERRS,ioos:station:NOAA.NERRS:apaebwq:1,2015-11-01T01:45:00Z,29.7858,-84.8752,0.0,25.2,2 
NERRS,ioos:station:NOAA.NERRS:apaebwq:1,2015-11-01T02:45:00Z,29.7858,-84.8752,0.0,25.1,2 
NERRS,ioos:station:NOAA.NERRS:apaebwq:1,2015-11-01T03:45:00Z,29.7858,-84.8752,0.0,24.9,2 
NERRS,ioos:station:NOAA.NERRS:apaebwq:1,2015-11-01T04:45:00Z,29.7858,-84.8752,0.0,24.7,2 
NERRS,ioos:station:NOAA.NERRS:apaebwq:1,2015-11-01T05:45:00Z,29.7858,-84.8752,0.0,24.7,2 
NERRS,ioos:station:NOAA.NERRS:apaebwq:1,2015-11-01T06:45:00Z,29.7858,-84.8752,0.0,24.7,2 
NERRS,ioos:station:NOAA.NERRS:apaebwq:1,2015-11-01T09:45:00Z,29.7858,-84.8752,0.0,24.3,2 
NERRS,ioos:station:NOAA.NERRS:apaebwq:1,2015-11-01T10:45:00Z,29.7858,-84.8752,0.0,24.4,2 
NERRS,ioos:station:NOAA.NERRS:apaebwq:1,2015-11-01T11:45:00Z,29.7858,-84.8752,0.0,24.3,2 
NERRS,ioos:station:NOAA.NERRS:apaebwq:1,2015-11-01T12:45:00Z,29.7858,-84.8752,0.0,24.2,2 
NERRS,ioos:station:NOAA.NERRS:apaebwq:1,2015-11-01T13:45:00Z,29.7858,-84.8752,0.0,24.2,2 
NERRS,ioos:station:NOAA.NERRS:apaebwq:1,2015-11-01T14:45:00Z,29.7858,-84.8752,0.0,24.3,2 
NERRS,ioos:station:NOAA.NERRS:apaebwq:1,2015-11-01T15:45:00Z,29.7858,-84.8752,0.0,24.6,2 
NERRS,ioos:station:NOAA.NERRS:apaebwq:1,2015-11-01T16:45:00Z,29.7858,-84.8752,0.0,24.9,2 
NERRS,ioos:station:NOAA.NERRS:apaebwq:1,2015-11-01T17:45:00Z,29.7858,-84.8752,0.0,25.2,2 
NERRS,ioos:station:NOAA.NERRS:apaebwq:1,2015-11-01T18:45:00Z,29.7858,-84.8752,0.0,25.5,2 
NERRS,ioos:station:NOAA.NERRS:apaebwq:1,2015-11-01T19:45:00Z,29.7858,-84.8752,0.0,25.6,2 
NERRS,ioos:station:NOAA.NERRS:apaebwq:1,2015-11-01T21:45:00Z,29.7858,-84.8752,0.0,25.7,2 
NERRS,ioos:station:NOAA.NERRS:apaebwq:1,2015-11-01T22:45:00Z,29.7858,-84.8752,0.0,25.7,2 
NERRS,ioos:station:NOAA.NERRS:apaebwq:1,2015-11-01T23:45:00Z,29.7858,-84.8752,0.0,25.7,2 
NERRS,ioos:station:NOAA.NERRS:apaebwq:1,2015-11-02T00:45:00Z,29.7858,-84.8752,0.0,25.7,2 
NERRS,ioos:station:NOAA.NERRS:apaebwq:1,2015-11-02T02:45:00Z,29.7858,-84.8752,0.0,25.9,2 
NERRS,ioos:station:NOAA.NERRS:apaebwq:1,2015-11-02T03:45:00Z,29.7858,-84.8752,0.0,25.8,2 
NERRS,ioos:station:NOAA.NERRS:apaebwq:1,2015-11-02T04:45:00Z,29.7858,-84.8752,0.0,25.7,2 
NERRS,ioos:station:NOAA.NERRS:apaebwq:1,2015-11-02T05:45:00Z,29.7858,-84.8752,0.0,25.7,2 
NERRS,ioos:station:NOAA.NERRS:apaebwq:1,2015-11-02T07:45:00Z,29.7858,-84.8752,0.0,25.7,2 
NERRS,ioos:station:NOAA.NERRS:apaebwq:1,2015-11-02T08:45:00Z,29.7858,-84.8752,0.0,25.7,2 
NERRS,ioos:station:NOAA.NERRS:apaebwq:1,2015-11-02T09:45:00Z,29.7858,-84.8752,0.0,25.7,2 
NERRS,ioos:station:NOAA.NERRS:apaebwq:1,2015-11-02T10:45:00Z,29.7858,-84.8752,0.0,25.6,2 
NERRS,ioos:station:NOAA.NERRS:apaebwq:1,2015-11-02T11:45:00Z,29.7858,-84.8752,0.0,25.6,2 
NERRS,ioos:station:NOAA.NERRS:apaebwq:1,2015-11-02T12:45:00Z,29.7858,-84.8752,0.0,25.6,2 
NERRS,ioos:station:NOAA.NERRS:apaebwq:1,2015-11-02T13:45:00Z,29.7858,-84.8752,0.0,25.2,2 
NERRS,ioos:station:NOAA.NERRS:apaebwq:1,2015-11-02T14:45:00Z,29.7858,-84.8752,0.0,25.3,2 
NERRS,ioos:station:NOAA.NERRS:apaebwq:1,2015-11-02T15:45:00Z,29.7858,-84.8752,0.0,25.4,2 
NERRS,ioos:station:NOAA.NERRS:apaebwq:1,2015-11-02T22:45:00Z,29.7858,-84.8752,0.0,26.6,2 
NERRS,ioos:station:NOAA.NERRS:apaebwq:1,2015-11-02T23:45:00Z,29.7858,-84.8752,0.0,26.5,2 
NERRS,ioos:station:NOAA.NERRS:apaebwq:1,2015-11-03T00:45:00Z,29.7858,-84.8752,0.0,26.5,2 
NERRS,ioos:station:NOAA.NERRS:apaebwq:1,2015-11-03T01:45:00Z,29.7858,-84.8752,0.0,26.4,2 
NERRS,ioos:station:NOAA.NERRS:apaebwq:1,2015-11-03T02:45:00Z,29.7858,-84.8752,0.0,26.4,2 
NERRS,ioos:station:NOAA.NERRS:apaebwq:1,2015-11-03T03:45:00Z,29.7858,-84.8752,0.0,26.5,2 
NERRS,ioos:station:NOAA.NERRS:apaebwq:1,2015-11-03T04:45:00Z,29.7858,-84.8752,0.0,26.5,2 
NERRS,ioos:station:NOAA.NERRS:apaebwq:1,2015-11-03T05:45:00Z,29.7858,-84.8752,0.0,26.4,2 
NERRS,ioos:station:NOAA.NERRS:apaebwq:1,2015-11-03T06:45:00Z,29.7858,-84.8752,0.0,26.4,2 
NERRS,ioos:station:NOAA.NERRS:apaebwq:1,2015-11-03T07:45:00Z,29.7858,-84.8752,0.0,26.4,2 
NERRS,ioos:station:NOAA.NERRS:apaebwq:1,2015-11-03T08:45:00Z,29.7858,-84.8752,0.0,26.4,2 
NERRS,ioos:station:NOAA.NERRS:apaebwq:1,2015-11-03T09:45:00Z,29.7858,-84.8752,0.0,26.4,2 
NERRS,ioos:station:NOAA.NERRS:apaebwq:1,2015-11-03T10:45:00Z,29.7858,-84.8752,0.0,26.4,2 
NERRS,ioos:station:NOAA.NERRS:apaebwq:1,2015-11-03T11:45:00Z,29.7858,-84.8752,0.0,26.3,2 
NERRS,ioos:station:NOAA.NERRS:apaebwq:1,2015-11-03T12:45:00Z,29.7858,-84.8752,0.0,26.3,2 
NERRS,ioos:station:NOAA.NERRS:apaebwq:1,2015-11-03T13:45:00Z,29.7858,-84.8752,0.0,24.0,2 
NERRS,ioos:station:NOAA.NERRS:apaebwq:1,2015-11-03T14:45:00Z,29.7858,-84.8752,0.0,27.4,2 
NERRS,ioos:station:NOAA.NERRS:apaebwq:1,2015-11-03T16:45:00Z,29.7858,-84.8752,0.0,27.5,2 
NERRS,ioos:station:NOAA.NERRS:apaebwq:1,2015-11-03T17:45:00Z,29.7858,-84.8752,0.0,27.5,2 
NERRS,ioos:station:NOAA.NERRS:apaebwq:1,2015-11-03T18:45:00Z,29.7858,-84.8752,0.0,27.4,2 
NERRS,ioos:station:NOAA.NERRS:apaebwq:1,2015-11-03T19:45:00Z,29.7858,-84.8752,0.0,27.5,2 
NERRS,ioos:station:NOAA.NERRS:apaebwq:1,2015-11-03T20:45:00Z,29.7858,-84.8752,0.0,27.5,2 
NERRS,ioos:station:NOAA.NERRS:apaebwq:1,2015-11-03T21:45:00Z,29.7858,-84.8752,0.0,27.5,2 
NERRS,ioos:station:NOAA.NERRS:apaebwq:1,2015-11-03T22:45:00Z,29.7858,-84.8752,0.0,27.4,2 
NERRS,ioos:station:NOAA.NERRS:apaebwq:1,2015-11-03T23:45:00Z,29.7858,-84.8752,0.0,27.5,2 
NERRS,ioos:station:NOAA.NERRS:apaebwq:1,2015-11-04T00:45:00Z,29.7858,-84.8752,0.0,27.5,2 
NERRS,ioos:station:NOAA.NERRS:apaebwq:1,2015-11-04T01:45:00Z,29.7858,-84.8752,0.0,27.5,2 
NERRS,ioos:station:NOAA.NERRS:apaebwq:1,2015-11-04T02:45:00Z,29.7858,-84.8752,0.0,27.4,2 
NERRS,ioos:station:NOAA.NERRS:apaebwq:1,2015-11-04T03:45:00Z,29.7858,-84.8752,0.0,27.4,2 
NERRS,ioos:station:NOAA.NERRS:apaebwq:1,2015-11-04T04:45:00Z,29.7858,-84.8752,0.0,27.4,2 
NERRS,ioos:station:NOAA.NERRS:apaebwq:1,2015-11-04T05:45:00Z,29.7858,-84.8752,0.0,27.4,2 
NERRS,ioos:station:NOAA.NERRS:apaebwq:1,2015-11-04T06:45:00Z,29.7858,-84.8752,0.0,27.3,2 
NERRS,ioos:station:NOAA.NERRS:apaebwq:1,2015-11-04T08:45:00Z,29.7858,-84.8752,0.0,27.3,2 
NERRS,ioos:station:NOAA.NERRS:apaebwq:1,2015-11-04T09:45:00Z,29.7858,-84.8752,0.0,27.3,2 
NERRS,ioos:station:NOAA.NERRS:apaebwq:1,2015-11-04T10:45:00Z,29.7858,-84.8752,0.0,27.3,2 
NERRS,ioos:station:NOAA.NERRS:apaebwq:1,2015-11-04T11:45:00Z,29.7858,-84.8752,0.0,27.3,2 
NERRS,ioos:station:NOAA.NERRS:apaebwq:1,2015-11-04T12:45:00Z,29.7858,-84.8752,0.0,27.3,2 
NERRS,ioos:station:NOAA.NERRS:apaebwq:1,2015-11-04T13:45:00Z,29.7858,-84.8752,0.0,27.3,2 
NERRS,ioos:station:NOAA.NERRS:apaebwq:1,2015-11-04T14:45:00Z,29.7858,-84.8752,0.0,27.3,2 
NERRS,ioos:station:NOAA.NERRS:apaebwq:1,2015-11-04T15:45:00Z,29.7858,-84.8752,0.0,27.3,2 
NERRS,ioos:station:NOAA.NERRS:apaebwq:1,2015-11-04T18:45:00Z,29.7858,-84.8752,0.0,27.4,2 
NERRS,ioos:station:NOAA.NERRS:apaebwq:1,2015-11-04T19:45:00Z,29.7858,-84.8752,0.0,27.5,2 
NERRS,ioos:station:NOAA.NERRS:apaebwq:1,2015-11-04T20:45:00Z,29.7858,-84.8752,0.0,27.5,2 
NERRS,ioos:station:NOAA.NERRS:apaebwq:1,2015-11-04T21:45:00Z,29.7858,-84.8752,0.0,27.5,2 
NERRS,ioos:station:NOAA.NERRS:apaebwq:1,2015-11-04T22:45:00Z,29.7858,-84.8752,0.0,27.5,2 
NERRS,ioos:station:NOAA.NERRS:apaebwq:1,2015-11-04T23:45:00Z,29.7858,-84.8752,0.0,27.5,2 
NERRS,ioos:station:NOAA.NERRS:apaebwq:1,2015-11-05T01:45:00Z,29.7858,-84.8752,0.0,27.5,2 
NERRS,ioos:station:NOAA.NERRS:apaebwq:1,2015-11-05T02:45:00Z,29.7858,-84.8752,0.0,27.6,2 
NERRS,ioos:station:NOAA.NERRS:apaebwq:1,2015-11-05T03:45:00Z,29.7858,-84.8752,0.0,27.5,2 
NERRS,ioos:station:NOAA.NERRS:apaebwq:1,2015-11-05T04:45:00Z,29.7858,-84.8752,0.0,27.5,2 
NERRS,ioos:station:NOAA.NERRS:apaebwq:1,2015-11-05T05:45:00Z,29.7858,-84.8752,0.0,27.5,2 
NERRS,ioos:station:NOAA.NERRS:apaebwq:1,2015-11-05T10:45:00Z,29.7858,-84.8752,0.0,27.5,2 
NERRS,ioos:station:NOAA.NERRS:apaebwq:1,2015-11-05T11:45:00Z,29.7858,-84.8752,0.0,27.5,2 
NERRS,ioos:station:NOAA.NERRS:apaebwq:1,2015-11-05T14:45:00Z,29.7858,-84.8752,0.0,27.1,2 
NERRS,ioos:station:NOAA.NERRS:apaebwq:1,2015-11-05T16:45:00Z,29.7858,-84.8752,0.0,27.0,2 
NERRS,ioos:station:NOAA.NERRS:apaebwq:1,2015-11-05T17:45:00Z,29.7858,-84.8752,0.0,27.0,2 
NERRS,ioos:station:NOAA.NERRS:apaebwq:1,2015-11-05T18:45:00Z,29.7858,-84.8752,0.0,27.0,2 
NERRS,ioos:station:NOAA.NERRS:apaebwq:1,2015-11-05T20:45:00Z,29.7858,-84.8752,0.0,27.0,2 
NERRS,ioos:station:NOAA.NERRS:apaebwq:1,2015-11-05T21:45:00Z,29.7858,-84.8752,0.0,27.1,2 
NERRS,ioos:station:NOAA.NERRS:apaebwq:1,2015-11-05T22:45:00Z,29.7858,-84.8752,0.0,27.1,2 
NERRS,ioos:station:NOAA.NERRS:apaebwq:1,2015-11-05T23:45:00Z,29.7858,-84.8752,0.0,27.1,2 
NERRS,ioos:station:NOAA.NERRS:apaebwq:1,2015-11-06T01:45:00Z,29.7858,-84.8752,0.0,27.4,2 
NERRS,ioos:station:NOAA.NERRS:apaebwq:1,2015-11-06T02:45:00Z,29.7858,-84.8752,0.0,27.5,2 
NERRS,ioos:station:NOAA.NERRS:apaebwq:1,2015-11-06T03:45:00Z,29.7858,-84.8752,0.0,27.6,2 
NERRS,ioos:station:NOAA.NERRS:apaebwq:1,2015-11-06T04:45:00Z,29.7858,-84.8752,0.0,27.6,2 
NERRS,ioos:station:NOAA.NERRS:apaebwq:1,2015-11-06T05:45:00Z,29.7858,-84.8752,0.0,27.6,2 
NERRS,ioos:station:NOAA.NERRS:apaebwq:1,2015-11-06T06:45:00Z,29.7858,-84.8752,0.0,27.5,2 
NERRS,ioos:station:NOAA.NERRS:apaebwq:1,2015-11-06T07:45:00Z,29.7858,-84.8752,0.0,27.3,2 
NERRS,ioos:station:NOAA.NERRS:apaebwq:1,2015-11-06T08:45:00Z,29.7858,-84.8752,0.0,27.3,2 
NERRS,ioos:station:NOAA.NERRS:apaebwq:1,2015-11-06T10:45:00Z,29.7858,-84.8752,0.0,27.4,2 
NERRS,ioos:station:NOAA.NERRS:apaebwq:1,2015-11-06T11:45:00Z,29.7858,-84.8752,0.0,27.4,2 
NERRS,ioos:station:NOAA.NERRS:apaebwq:1,2015-11-06T12:45:00Z,29.7858,-84.8752,0.0,27.4,2 
NERRS,ioos:station:NOAA.NERRS:apaebwq:1,2015-11-06T14:45:00Z,29.7858,-84.8752,0.0,27.5,2 
NERRS,ioos:station:NOAA.NERRS:apaebwq:1,2015-11-06T15:45:00Z,29.7858,-84.8752,0.0,27.5,2 
NERRS,ioos:station:NOAA.NERRS:apaebwq:1,2015-11-06T16:45:00Z,29.7858,-84.8752,0.0,27.5,2 
NERRS,ioos:station:NOAA.NERRS:apaebwq:1,2015-11-06T17:45:00Z,29.7858,-84.8752,0.0,27.5,2 
NERRS,ioos:station:NOAA.NERRS:apaebwq:1,2015-11-06T18:45:00Z,29.7858,-84.8752,0.0,27.5,2 
NERRS,ioos:station:NOAA.NERRS:apaebwq:1,2015-11-06T19:45:00Z,29.7858,-84.8752,0.0,27.6,2 
NERRS,ioos:station:NOAA.NERRS:apaebwq:1,2015-11-06T22:45:00Z,29.7858,-84.8752,0.0,27.6,2 
NERRS,ioos:station:NOAA.NERRS:apaebwq:1,2015-11-06T23:45:00Z,29.7858,-84.8752,0.0,27.6,2 
NERRS,ioos:station:NOAA.NERRS:apaebwq:1,2015-11-07T02:45:00Z,29.7858,-84.8752,0.0,27.8,2 
NERRS,ioos:station:NOAA.NERRS:apaebwq:1,2015-11-07T03:45:00Z,29.7858,-84.8752,0.0,27.9,2 
NERRS,ioos:station:NOAA.NERRS:apaebwq:1,2015-11-07T04:45:00Z,29.7858,-84.8752,0.0,27.8,2 
NERRS,ioos:station:NOAA.NERRS:apaebwq:1,2015-11-07T05:45:00Z,29.7858,-84.8752,0.0,27.8,2 
NERRS,ioos:station:NOAA.NERRS:apaebwq:1,2015-11-07T06:45:00Z,29.7858,-84.8752,0.0,27.8,2 
NERRS,ioos:station:NOAA.NERRS:apaebwq:1,2015-11-07T07:45:00Z,29.7858,-84.8752,0.0,27.7,2 
NERRS,ioos:station:NOAA.NERRS:apaebwq:1,2015-11-07T08:45:00Z,29.7858,-84.8752,0.0,27.7,2 
NERRS,ioos:station:NOAA.NERRS:apaebwq:1,2015-11-07T09:45:00Z,29.7858,-84.8752,0.0,27.8,2 
NERRS,ioos:station:NOAA.NERRS:apaebwq:1,2015-11-07T10:45:00Z,29.7858,-84.8752,0.0,27.8,2 
NERRS,ioos:station:NOAA.NERRS:apaebwq:1,2015-11-07T11:45:00Z,29.7858,-84.8752,0.0,27.7,2 
NERRS,ioos:station:NOAA.NERRS:apaebwq:1,2015-11-07T12:45:00Z,29.7858,-84.8752,0.0,27.7,2 
NERRS,ioos:station:NOAA.NERRS:apaebwq:1,2015-11-07T13:45:00Z,29.7858,-84.8752,0.0,27.7,2 
NERRS,ioos:station:NOAA.NERRS:apaebwq:1,2015-11-07T14:45:00Z,29.7858,-84.8752,0.0,27.5,2 
NERRS,ioos:station:NOAA.NERRS:apaebwq:1,2015-11-07T15:45:00Z,29.7858,-84.8752,0.0,27.3,2 
NERRS,ioos:station:NOAA.NERRS:apaebwq:1,2015-11-07T16:45:00Z,29.7858,-84.8752,0.0,27.6,2 
NERRS,ioos:station:NOAA.NERRS:apaebwq:1,2015-11-07T17:45:00Z,29.7858,-84.8752,0.0,27.6,2 
NERRS,ioos:station:NOAA.NERRS:apaebwq:1,2015-11-07T18:45:00Z,29.7858,-84.8752,0.0,27.7,2 
NERRS,ioos:station:NOAA.NERRS:apaebwq:1,2015-11-07T20:45:00Z,29.7858,-84.8752,0.0,27.7,2 
NERRS,ioos:station:NOAA.NERRS:apaebwq:1,2015-11-07T23:45:00Z,29.7858,-84.8752,0.0,27.8,2 
NERRS,ioos:station:NOAA.NERRS:apaebwq:1,2015-11-08T00:45:00Z,29.7858,-84.8752,0.0,27.9,2 
NERRS,ioos:station:NOAA.NERRS:apaebwq:1,2015-11-08T01:45:00Z,29.7858,-84.8752,0.0,27.7,2 
NERRS,ioos:station:NOAA.NERRS:apaebwq:1,2015-11-08T03:45:00Z,29.7858,-84.8752,0.0,27.6,2 
NERRS,ioos:station:NOAA.NERRS:apaebwq:1,2015-11-08T04:45:00Z,29.7858,-84.8752,0.0,27.7,2 
NERRS,ioos:station:NOAA.NERRS:apaebwq:1,2015-11-08T05:45:00Z,29.7858,-84.8752,0.0,27.8,2 
NERRS,ioos:station:NOAA.NERRS:apaebwq:1,2015-11-08T06:45:00Z,29.7858,-84.8752,0.0,27.8,2 
NERRS,ioos:station:NOAA.NERRS:apaebwq:1,2015-11-08T07:45:00Z,29.7858,-84.8752,0.0,27.7,2 
NERRS,ioos:station:NOAA.NERRS:apaebwq:1,2015-11-08T10:45:00Z,29.7858,-84.8752,0.0,27.7,2 
NERRS,ioos:station:NOAA.NERRS:apaebwq:1,2015-11-08T11:45:00Z,29.7858,-84.8752,0.0,27.6,2 
NERRS,ioos:station:NOAA.NERRS:apaebwq:1,2015-11-08T12:45:00Z,29.7858,-84.8752,0.0,27.7,2 
NERRS,ioos:station:NOAA.NERRS:apaebwq:1,2015-11-08T13:45:00Z,29.7858,-84.8752,0.0,27.4,2 
NERRS,ioos:station:NOAA.NERRS:apaebwq:1,2015-11-08T14:45:00Z,29.7858,-84.8752,0.0,26.8,2 
NERRS,ioos:station:NOAA.NERRS:apaebwq:1,2015-11-08T16:45:00Z,29.7858,-84.8752,0.0,26.4,2 
NERRS,ioos:station:NOAA.NERRS:apaebwq:1,2015-11-08T17:45:00Z,29.7858,-84.8752,0.0,26.1,2 
NERRS,ioos:station:NOAA.NERRS:apaebwq:1,2015-11-08T18:45:00Z,29.7858,-84.8752,0.0,26.1,2 
NERRS,ioos:station:NOAA.NERRS:apaebwq:1,2015-11-08T19:45:00Z,29.7858,-84.8752,0.0,26.2,2 
NERRS,ioos:station:NOAA.NERRS:apaebwq:1,2015-11-08T20:45:00Z,29.7858,-84.8752,0.0,26.3,2 
NERRS,ioos:station:NOAA.NERRS:apaebwq:1,2015-11-08T21:45:00Z,29.7858,-84.8752,0.0,26.3,2 
NERRS,ioos:station:NOAA.NERRS:apaebwq:1,2015-11-08T23:45:00Z,29.7858,-84.8752,0.0,26.4,2 
NERRS,ioos:station:NOAA.NERRS:apaebwq:1,2015-11-09T00:45:00Z,29.7858,-84.8752,0.0,26.4,2 
NERRS,ioos:station:NOAA.NERRS:apaebwq:1,2015-11-09T02:45:00Z,29.7858,-84.8752,0.0,26.3,2 
NERRS,ioos:station:NOAA.NERRS:apaebwq:1,2015-11-09T03:45:00Z,29.7858,-84.8752,0.0,26.3,2 
NERRS,ioos:station:NOAA.NERRS:apaebwq:1,2015-11-09T04:45:00Z,29.7858,-84.8752,0.0,26.1,2 
NERRS,ioos:station:NOAA.NERRS:apaebwq:1,2015-11-09T05:45:00Z,29.7858,-84.8752,0.0,25.6,2 
NERRS,ioos:station:NOAA.NERRS:apaebwq:1,2015-11-09T06:45:00Z,29.7858,-84.8752,0.0,25.4,2 
NERRS,ioos:station:NOAA.NERRS:apaebwq:1,2015-11-09T08:45:00Z,29.7858,-84.8752,0.0,25.8,2 
NERRS,ioos:station:NOAA.NERRS:apaebwq:1,2015-11-09T09:45:00Z,29.7858,-84.8752,0.0,25.1,2 
NERRS,ioos:station:NOAA.NERRS:apaebwq:1,2015-11-09T10:45:00Z,29.7858,-84.8752,0.0,25.0,2 
NERRS,ioos:station:NOAA.NERRS:apaebwq:1,2015-11-09T12:45:00Z,29.7858,-84.8752,0.0,25.2,2 
NERRS,ioos:station:NOAA.NERRS:apaebwq:1,2015-11-09T13:45:00Z,29.7858,-84.8752,0.0,25.1,2 
NERRS,ioos:station:NOAA.NERRS:apaebwq:1,2015-11-09T14:45:00Z,29.7858,-84.8752,0.0,25.0,2 
NERRS,ioos:station:NOAA.NERRS:apaebwq:1,2015-11-09T17:45:00Z,29.7858,-84.8752,0.0,24.7,2 
NERRS,ioos:station:NOAA.NERRS:apaebwq:1,2015-11-09T18:45:00Z,29.7858,-84.8752,0.0,24.9,2 
NERRS,ioos:station:NOAA.NERRS:apaebwq:1,2015-11-09T19:45:00Z,29.7858,-84.8752,0.0,25.1,2 
NERRS,ioos:station:NOAA.NERRS:apaebwq:1,2015-11-09T20:45:00Z,29.7858,-84.8752,0.0,25.0,2 
NERRS,ioos:station:NOAA.NERRS:apaebwq:1,2015-11-09T21:45:00Z,29.7858,-84.8752,0.0,25.0,2 
NERRS,ioos:station:NOAA.NERRS:apaebwq:1,2015-11-09T22:45:00Z,29.7858,-84.8752,0.0,25.1,2 
NERRS,ioos:station:NOAA.NERRS:apaebwq:1,2015-11-10T01:45:00Z,29.7858,-84.8752,0.0,25.1,2 
NERRS,ioos:station:NOAA.NERRS:apaebwq:1,2015-11-10T03:45:00Z,29.7858,-84.8752,0.0,24.9,2 
NERRS,ioos:station:NOAA.NERRS:apaebwq:1,2015-11-10T04:45:00Z,29.7858,-84.8752,0.0,24.7,2 
NERRS,ioos:station:NOAA.NERRS:apaebwq:1,2015-11-10T05:45:00Z,29.7858,-84.8752,0.0,24.6,2 
NERRS,ioos:station:NOAA.NERRS:apaebwq:1,2015-11-10T06:45:00Z,29.7858,-84.8752,0.0,24.3,2 
NERRS,ioos:station:NOAA.NERRS:apaebwq:1,2015-11-10T07:45:00Z,29.7858,-84.8752,0.0,24.9,2 
NERRS,ioos:station:NOAA.NERRS:apaebwq:1,2015-11-10T08:45:00Z,29.7858,-84.8752,0.0,25.0,2 
NERRS,ioos:station:NOAA.NERRS:apaebwq:1,2015-11-10T10:45:00Z,29.7858,-84.8752,0.0,24.9,2 
NERRS,ioos:station:NOAA.NERRS:apaebwq:1,2015-11-10T11:45:00Z,29.7858,-84.8752,0.0,25.0,2 
NERRS,ioos:station:NOAA.NERRS:apaebwq:1,2015-11-10T12:45:00Z,29.7858,-84.8752,0.0,25.0,2 
NERRS,ioos:station:NOAA.NERRS:apaebwq:1,2015-11-10T13:45:00Z,29.7858,-84.8752,0.0,25.0,2 
NERRS,ioos:station:NOAA.NERRS:apaebwq:1,2015-11-10T14:45:00Z,29.7858,-84.8752,0.0,24.9,2 
NERRS,ioos:station:NOAA.NERRS:apaebwq:1,2015-11-10T15:45:00Z,29.7858,-84.8752,0.0,24.8,2 
NERRS,ioos:station:NOAA.NERRS:apaebwq:1,2015-11-10T16:45:00Z,29.7858,-84.8752,0.0,24.3,2 
NERRS,ioos:station:NOAA.NERRS:apaebwq:1,2015-11-10T18:45:00Z,29.7858,-84.8752,0.0,23.9,2 
NERRS,ioos:station:NOAA.NERRS:apaebwq:1,2015-11-10T19:45:00Z,29.7858,-84.8752,0.0,24.1,2 
NERRS,ioos:station:NOAA.NERRS:apaebwq:1,2015-11-10T20:45:00Z,29.7858,-84.8752,0.0,24.3,2 
NERRS,ioos:station:NOAA.NERRS:apaebwq:1,2015-11-10T21:45:00Z,29.7858,-84.8752,0.0,24.3,2 
NERRS,ioos:station:NOAA.NERRS:apaebwq:1,2015-11-10T22:45:00Z,29.7858,-84.8752,0.0,24.4,2 
NERRS,ioos:station:NOAA.NERRS:apaebwq:1,2015-11-10T23:45:00Z,29.7858,-84.8752,0.0,24.4,2 
NERRS,ioos:station:NOAA.NERRS:apaebwq:1,2015-11-11T00:45:00Z,29.7858,-84.8752,0.0,24.4,2 
NERRS,ioos:station:NOAA.NERRS:apaebwq:1,2015-11-11T01:45:00Z,29.7858,-84.8752,0.0,24.4,2 
NERRS,ioos:station:NOAA.NERRS:apaebwq:1,2015-11-11T02:45:00Z,29.7858,-84.8752,0.0,24.4,2 
NERRS,ioos:station:NOAA.NERRS:apaebwq:1,2015-11-11T03:45:00Z,29.7858,-84.8752,0.0,24.4,2 
NERRS,ioos:station:NOAA.NERRS:apaebwq:1,2015-11-11T04:45:00Z,29.7858,-84.8752,0.0,24.2,2 
NERRS,ioos:station:NOAA.NERRS:apaebwq:1,2015-11-11T05:45:00Z,29.7858,-84.8752,0.0,24.0,2 
NERRS,ioos:station:NOAA.NERRS:apaebwq:1,2015-11-11T06:45:00Z,29.7858,-84.8752,0.0,24.0,2 
NERRS,ioos:station:NOAA.NERRS:apaebwq:1,2015-11-11T07:45:00Z,29.7858,-84.8752,0.0,24.0,2 
NERRS,ioos:station:NOAA.NERRS:apaebwq:1,2015-11-11T09:45:00Z,29.7858,-84.8752,0.0,24.2,2 
NERRS,ioos:station:NOAA.NERRS:apaebwq:1,2015-11-11T10:45:00Z,29.7858,-84.8752,0.0,24.2,2 
NERRS,ioos:station:NOAA.NERRS:apaebwq:1,2015-11-11T11:45:00Z,29.7858,-84.8752,0.0,24.3,2 
NERRS,ioos:station:NOAA.NERRS:apaebwq:1,2015-11-11T12:45:00Z,29.7858,-84.8752,0.0,24.3,2 
NERRS,ioos:station:NOAA.NERRS:apaebwq:1,2015-11-11T16:45:00Z,29.7858,-84.8752,0.0,24.3,2 
NERRS,ioos:station:NOAA.NERRS:apaebwq:1,2015-11-11T17:45:00Z,29.7858,-84.8752,0.0,24.0,2 
NERRS,ioos:station:NOAA.NERRS:apaebwq:1,2015-11-11T18:45:00Z,29.7858,-84.8752,0.0,24.0,2 
NERRS,ioos:station:NOAA.NERRS:apaebwq:1,2015-11-11T19:45:00Z,29.7858,-84.8752,0.0,24.3,2 
NERRS,ioos:station:NOAA.NERRS:apaebwq:1,2015-11-11T20:45:00Z,29.7858,-84.8752,0.0,24.3,2 
NERRS,ioos:station:NOAA.NERRS:apaebwq:1,2015-11-11T21:45:00Z,29.7858,-84.8752,0.0,24.3,2 
NERRS,ioos:station:NOAA.NERRS:apaebwq:1,2015-11-11T22:45:00Z,29.7858,-84.8752,0.0,24.3,2 
NERRS,ioos:station:NOAA.NERRS:apaebwq:1,2015-11-12T02:45:00Z,29.7858,-84.8752,0.0,24.3,2 
NERRS,ioos:station:NOAA.NERRS:apaebwq:1,2015-11-12T04:45:00Z,29.7858,-84.8752,0.0,24.3,2 
NERRS,ioos:station:NOAA.NERRS:apaebwq:1,2015-11-12T05:45:00Z,29.7858,-84.8752,0.0,24.3,2 
NERRS,ioos:station:NOAA.NERRS:apaebwq:1,2015-11-12T06:45:00Z,29.7858,-84.8752,0.0,24.3,2 
NERRS,ioos:station:NOAA.NERRS:apaebwq:1,2015-11-12T07:45:00Z,29.7858,-84.8752,0.0,24.3,2 
NERRS,ioos:station:NOAA.NERRS:apaebwq:1,2015-11-12T08:45:00Z,29.7858,-84.8752,0.0,24.3,2 
NERRS,ioos:station:NOAA.NERRS:apaebwq:1,2015-11-12T09:45:00Z,29.7858,-84.8752,0.0,24.3,2 
NERRS,ioos:station:NOAA.NERRS:apaebwq:1,2015-11-12T10:45:00Z,29.7858,-84.8752,0.0,24.2,2 
NERRS,ioos:station:NOAA.NERRS:apaebwq:1,2015-11-12T11:45:00Z,29.7858,-84.8752,0.0,24.3,2 
NERRS,ioos:station:NOAA.NERRS:apaebwq:1,2015-11-12T12:45:00Z,29.7858,-84.8752,0.0,24.3,2 
NERRS,ioos:station:NOAA.NERRS:apaebwq:1,2015-11-12T13:45:00Z,29.7858,-84.8752,0.0,24.3,2 
NERRS,ioos:station:NOAA.NERRS:apaebwq:1,2015-11-12T15:45:00Z,29.7858,-84.8752,0.0,24.3,2 
NERRS,ioos:station:NOAA.NERRS:apaebwq:1,2015-11-12T16:45:00Z,29.7858,-84.8752,0.0,24.3,2 
NERRS,ioos:station:NOAA.NERRS:apaebwq:1,2015-11-12T17:30:00Z,29.7858,-84.8752,0.0,24.3,2 
NERRS,ioos:station:NOAA.NERRS:apaebwq:1,2015-11-13T15:45:00Z,29.7858,-84.8752,0.0,24.4,2 
NERRS,ioos:station:NOAA.NERRS:apaebwq:1,2015-11-13T16:45:00Z,29.7858,-84.8752,0.0,24.3,2 
NERRS,ioos:station:NOAA.NERRS:apaebwq:1,2015-11-13T17:45:00Z,29.7858,-84.8752,0.0,24.2,2 
NERRS,ioos:station:NOAA.NERRS:apaebwq:1,2015-11-13T18:45:00Z,29.7858,-84.8752,0.0,23.2,2 
NERRS,ioos:station:NOAA.NERRS:apaebwq:1,2015-11-13T19:45:00Z,29.7858,-84.8752,0.0,23.5,2 
NERRS,ioos:station:NOAA.NERRS:apaebwq:1,2015-11-13T20:45:00Z,29.7858,-84.8752,0.0,23.6,2 
NERRS,ioos:station:NOAA.NERRS:apaebwq:1,2015-11-13T21:45:00Z,29.7858,-84.8752,0.0,23.6,2 
NERRS,ioos:station:NOAA.NERRS:apaebwq:1,2015-11-13T22:45:00Z,29.7858,-84.8752,0.0,23.6,2 
NERRS,ioos:station:NOAA.NERRS:apaebwq:1,2015-11-13T23:45:00Z,29.7858,-84.8752,0.0,23.6,2 
NERRS,ioos:station:NOAA.NERRS:apaebwq:1,2015-11-14T01:45:00Z,29.7858,-84.8752,0.0,23.8,2 
NERRS,ioos:station:NOAA.NERRS:apaebwq:1,2015-11-14T02:45:00Z,29.7858,-84.8752,0.0,24.0,2 
NERRS,ioos:station:NOAA.NERRS:apaebwq:1,2015-11-14T03:45:00Z,29.7858,-84.8752,0.0,23.7,2 
NERRS,ioos:station:NOAA.NERRS:apaebwq:1,2015-11-14T04:45:00Z,29.7858,-84.8752,0.0,23.5,2 
NERRS,ioos:station:NOAA.NERRS:apaebwq:1,2015-11-14T05:45:00Z,29.7858,-84.8752,0.0,23.5,2 
NERRS,ioos:station:NOAA.NERRS:apaebwq:1,2015-11-14T06:45:00Z,29.7858,-84.8752,0.0,22.3,2 
NERRS,ioos:station:NOAA.NERRS:apaebwq:1,2015-11-14T09:45:00Z,29.7858,-84.8752,0.0,21.7,2 
NERRS,ioos:station:NOAA.NERRS:apaebwq:1,2015-11-14T10:45:00Z,29.7858,-84.8752,0.0,22.0,2 
NERRS,ioos:station:NOAA.NERRS:apaebwq:1,2015-11-14T11:45:00Z,29.7858,-84.8752,0.0,22.0,2 
NERRS,ioos:station:NOAA.NERRS:apaebwq:1,2015-11-14T12:45:00Z,29.7858,-84.8752,0.0,22.0,2 
NERRS,ioos:station:NOAA.NERRS:apaebwq:1,2015-11-14T14:45:00Z,29.7858,-84.8752,0.0,19.3,2 
NERRS,ioos:station:NOAA.NERRS:apaebwq:1,2015-11-14T15:45:00Z,29.7858,-84.8752,0.0,19.7,2 
NERRS,ioos:station:NOAA.NERRS:apaebwq:1,2015-11-14T16:45:00Z,29.7858,-84.8752,0.0,19.7,2 
NERRS,ioos:station:NOAA.NERRS:apaebwq:1,2015-11-14T17:45:00Z,29.7858,-84.8752,0.0,19.8,2 
NERRS,ioos:station:NOAA.NERRS:apaebwq:1,2015-11-14T18:45:00Z,29.7858,-84.8752,0.0,20.1,2 
NERRS,ioos:station:NOAA.NERRS:apaebwq:1,2015-11-14T19:45:00Z,29.7858,-84.8752,0.0,19.9,2 
NERRS,ioos:station:NOAA.NERRS:apaebwq:1,2015-11-14T20:45:00Z,29.7858,-84.8752,0.0,19.5,2 
NERRS,ioos:station:NOAA.NERRS:apaebwq:1,2015-11-14T21:45:00Z,29.7858,-84.8752,0.0,19.5,2 
NERRS,ioos:station:NOAA.NERRS:apaebwq:1,2015-11-14T23:45:00Z,29.7858,-84.8752,0.0,19.3,2 
NERRS,ioos:station:NOAA.NERRS:apaebwq:1,2015-11-15T02:45:00Z,29.7858,-84.8752,0.0,19.1,2 
NERRS,ioos:station:NOAA.NERRS:apaebwq:1,2015-11-15T03:45:00Z,29.7858,-84.8752,0.0,19.1,2 
NERRS,ioos:station:NOAA.NERRS:apaebwq:1,2015-11-15T04:45:00Z,29.7858,-84.8752,0.0,19.0,2 
NERRS,ioos:station:NOAA.NERRS:apaebwq:1,2015-11-15T05:45:00Z,29.7858,-84.8752,0.0,18.6,2 
NERRS,ioos:station:NOAA.NERRS:apaebwq:1,2015-11-15T07:45:00Z,29.7858,-84.8752,0.0,17.9,2 
NERRS,ioos:station:NOAA.NERRS:apaebwq:1,2015-11-15T08:45:00Z,29.7858,-84.8752,0.0,18.2,2 
NERRS,ioos:station:NOAA.NERRS:apaebwq:1,2015-11-15T09:45:00Z,29.7858,-84.8752,0.0,18.2,2 
NERRS,ioos:station:NOAA.NERRS:apaebwq:1,2015-11-15T10:45:00Z,29.7858,-84.8752,0.0,18.2,2 
NERRS,ioos:station:NOAA.NERRS:apaebwq:1,2015-11-15T12:45:00Z,29.7858,-84.8752,0.0,18.0,2 
NERRS,ioos:station:NOAA.NERRS:apaebwq:1,2015-11-15T13:45:00Z,29.7858,-84.8752,0.0,17.3,2 
NERRS,ioos:station:NOAA.NERRS:apaebwq:1,2015-11-15T14:45:00Z,29.7858,-84.8752,0.0,17.3,2 
NERRS,ioos:station:NOAA.NERRS:apaebwq:1,2015-11-15T15:45:00Z,29.7858,-84.8752,0.0,17.3,2 
NERRS,ioos:station:NOAA.NERRS:apaebwq:1,2015-11-15T16:45:00Z,29.7858,-84.8752,0.0,17.6,2 